Date,TemperatureHighF,TemperatureAvgF,TemperatureLowF,DewpointHighF,DewpointAvgF,DewpointLowF,HumidityHigh,HumidityAvg,HumidityLow,PressureMaxIn,PressureMinIn,WindSpeedMaxMPH,WindSpeedAvgMPH,GustSpeedMaxMPH,PrecipitationSumIn
2012-1-1,57.4,46.0,30.7,44.6,37.2,26.7,89,72,52,29.93,29.52,16,3,24,0.02
2012-1-2,43.5,35.6,28.0,28.2,20.4,14.9,63,54,43,29.78,29.66,17,4,26,0.00
2012-1-3,31.8,25.5,16.0,20.2,11.4,-0.4,77,55,36,30.09,29.76,15,4,24,0.00
2012-1-4,31.6,22.5,12.4,18.7,11.6,-0.5,75,63,48,30.11,29.78,9,1,13,0.00
2012-1-5,47.1,35.2,22.1,28.8,23.1,15.2,78,62,45,29.83,29.73,9,1,17,0.00
2012-1-6,66.6,43.4,26.8,39.0,29.2,20.6,81,60,35,29.75,29.60,11,2,14,0.00
2012-1-7,67.6,48.6,32.2,46.6,31.9,24.7,79,54,39,29.91,29.59,14,2,23,0.00
2012-1-8,47.8,37.7,26.8,33.4,26.7,19.9,83,65,48,30.15,29.90,8,1,14,0.00
2012-1-9,42.4,32.6,24.6,29.9,25.8,19.9,85,76,56,30.15,29.84,11,1,14,0.00
2012-1-10,54.3,38.3,27.5,38.2,29.6,23.9,89,73,45,29.85,29.78,8,1,12,0.00
2012-1-11,41.9,34.8,24.4,39.2,30.9,20.6,90,86,76,29.85,29.30,8,0,12,0.87
2012-1-12,55.2,45.8,39.7,47.2,41.7,37.0,90,86,74,29.41,29.15,9,1,17,0.08
2012-1-13,46.0,32.9,27.1,43.3,21.1,14.9,90,62,50,29.78,29.14,18,6,43,0.14
2012-1-14,38.3,29.3,24.4,20.8,16.0,13.5,67,57,47,29.98,29.77,9,3,15,0.00
2012-1-15,34.2,27.1,21.4,16.8,13.1,10.4,76,56,39,30.38,29.98,9,1,13,0.00
2012-1-16,40.8,30.5,15.6,33.7,20.8,10.9,83,68,49,30.37,29.90,16,2,24,0.08
2012-1-17,57.4,48.2,38.8,45.8,40.1,33.2,86,74,59,29.90,29.46,14,3,20,0.04
2012-1-18,52.7,35.8,20.3,39.2,21.5,13.3,76,56,45,30.00,29.56,18,4,21,0.00
2012-1-19,37.6,26.6,14.7,28.5,17.3,10.2,83,69,49,30.01,29.70,12,1,16,0.00
2012-1-20,36.5,29.6,23.0,28.2,16.4,8.4,82,58,42,30.11,29.77,10,2,16,0.00
2012-1-21,32.9,29.1,25.0,27.1,24.3,20.5,87,82,74,30.12,29.76,7,0,8,0.00
2012-1-22,33.8,29.1,26.1,27.0,23.4,19.7,87,79,70,30.26,30.12,6,1,8,0.00
2012-1-23,41.9,35.4,30.0,38.9,32.4,26.3,90,89,86,30.15,29.65,3,0,6,0.28
2012-1-24,54.7,43.6,32.7,40.2,34.4,30.1,91,71,50,30.04,29.71,9,2,15,0.00
2012-1-25,47.7,40.6,35.2,33.9,30.5,27.4,76,67,57,30.19,29.98,10,1,13,0.00
2012-1-26,40.8,38.9,37.9,36.8,34.1,31.1,90,83,73,30.00,29.53,6,1,8,0.28
2012-1-27,59.5,45.6,38.8,53.9,37.5,27.6,91,74,56,29.83,29.27,15,3,23,0.22
2012-1-28,53.8,41.2,32.2,36.1,27.7,14.3,83,60,39,30.00,29.71,16,3,26,0.00
2012-1-29,46.9,37.8,27.0,30.0,19.8,13.5,72,49,37,30.07,29.81,18,3,25,0.00
2012-1-30,45.9,36.5,27.7,24.1,20.5,14.5,68,53,38,30.19,29.98,12,1,17,0.00
2012-1-31,68.7,47.5,28.2,36.8,29.0,20.9,78,52,31,29.99,29.83,8,1,8,0.00
2012-2-1,66.7,55.9,41.9,49.1,40.9,31.6,84,58,44,29.87,29.80,10,2,17,0.00
2012-2-2,52.7,44.9,38.8,41.0,34.9,26.5,87,69,49,30.17,29.78,14,3,21,0.00
2012-2-3,49.5,38.2,28.2,32.3,27.6,22.8,84,66,48,30.33,30.16,9,1,12,0.00
2012-2-4,43.5,34.1,26.8,33.8,29.3,23.0,90,83,59,30.16,29.92,9,1,13,0.06
2012-2-5,44.4,35.6,27.5,36.6,30.8,24.1,90,83,61,30.05,29.89,6,0,8,0.20
2012-2-6,53.6,35.9,21.4,36.2,26.8,17.8,88,72,40,30.06,29.86,10,1,12,0.00
2012-2-7,54.1,39.1,25.7,34.6,27.4,21.8,86,65,41,30.06,29.88,11,2,14,0.00
2012-2-8,36.5,32.6,28.2,31.5,28.6,23.1,89,85,77,30.07,29.94,1,0,1,0.04
2012-2-9,45.3,34.8,24.1,30.5,23.7,18.5,89,66,42,30.08,29.98,8,1,13,0.08
2012-2-10,45.3,33.7,21.7,31.3,25.9,17.7,89,75,50,30.01,29.72,7,1,12,0.00
2012-2-11,40.1,31.8,22.6,34.4,24.6,9.4,90,76,53,29.80,29.48,14,3,23,0.14
2012-2-12,31.8,25.9,21.4,15.3,12.0,8.9,61,55,48,29.95,29.80,14,4,22,0.00
2012-2-13,48.9,36.3,25.5,24.9,19.4,13.5,65,51,35,30.00,29.87,11,2,20,0.00
2012-2-14,52.7,40.4,32.7,31.5,27.1,22.2,71,60,41,29.90,29.74,7,1,10,0.00
2012-2-15,52.9,43.9,34.9,36.2,31.2,26.9,75,61,47,30.10,29.84,9,1,13,0.00
2012-2-16,48.4,41.9,35.4,43.0,36.4,28.5,85,81,75,30.09,29.80,9,0,17,0.22
2012-2-17,54.0,45.6,34.2,40.8,32.4,24.1,87,62,40,29.94,29.81,11,2,15,0.00
2012-2-18,62.1,44.1,27.1,36.4,28.4,21.9,82,57,34,29.93,29.67,14,3,22,0.00
2012-2-19,45.3,38.4,30.6,28.3,24.3,20.5,70,57,45,29.94,29.73,12,3,14,0.00
2012-2-20,49.3,38.2,26.4,25.0,21.8,17.3,68,52,36,30.15,29.82,11,3,21,0.00
2012-2-21,50.9,38.8,22.6,32.8,26.6,16.8,81,63,48,30.13,29.64,18,4,25,0.00
2012-2-22,64.2,53.2,36.0,41.1,35.6,28.5,78,53,33,29.66,29.28,16,4,25,0.00
2012-2-23,65.3,55.6,45.5,41.9,37.1,32.8,71,51,35,29.47,29.26,12,2,16,0.00
2012-2-24,54.3,46.7,42.1,46.2,38.5,27.1,85,74,48,29.50,29.21,16,4,26,0.39
2012-2-25,43.9,38.9,34.2,27.6,22.4,18.0,66,52,42,30.08,29.48,17,6,28,0.00
2012-2-26,50.4,39.5,29.3,28.5,21.7,18.1,65,49,37,30.28,30.08,10,2,15,0.00
2012-2-27,68.4,48.0,24.4,38.9,29.0,18.4,80,52,30,30.17,29.92,17,3,40,0.00
2012-2-28,54.9,43.7,32.5,28.4,24.5,19.8,63,47,33,30.30,30.09,9,2,18,0.00
2012-2-29,43.7,41.1,33.4,40.1,34.9,24.4,87,79,63,30.09,29.45,10,1,10,1.21
2012-3-1,66.6,50.4,37.6,48.5,37.3,27.0,89,64,40,29.80,29.42,15,3,22,0.00
2012-3-2,54.3,42.2,29.3,42.6,33.5,24.2,86,72,56,29.85,29.43,14,2,24,0.34
2012-3-3,61.2,50.1,42.6,44.4,34.5,23.0,88,59,30,29.58,29.33,12,2,22,0.20
2012-3-4,46.0,39.1,32.5,28.2,24.1,20.4,68,55,43,29.71,29.52,11,2,20,0.00
2012-3-5,44.8,34.6,27.1,29.4,21.4,15.7,77,59,44,30.28,29.71,19,1,23,0.00
2012-3-6,51.4,38.4,22.8,28.8,22.9,15.9,78,55,40,30.46,30.27,14,1,22,0.00
2012-3-7,69.1,50.9,27.7,42.7,33.8,21.7,79,55,33,30.32,30.09,14,4,22,0.00
2012-3-8,74.5,62.4,49.6,53.5,47.1,38.5,75,58,46,30.10,29.73,18,5,29,0.04
2012-3-9,57.4,47.0,36.1,45.7,27.7,17.8,75,48,35,30.19,29.84,16,3,26,0.06
2012-3-10,48.4,38.0,30.2,21.0,17.7,14.7,58,44,30,30.39,30.19,9,2,16,0.00
2012-3-11,66.9,47.3,25.7,38.1,28.9,17.0,77,52,33,30.33,30.14,10,1,13,0.00
2012-3-12,73.9,54.1,33.1,46.3,36.9,26.8,80,55,33,30.17,29.89,8,1,13,0.00
2012-3-13,83.5,68.7,54.0,61.4,51.5,43.6,78,56,39,29.91,29.78,13,2,24,0.00
2012-3-14,81.5,64.9,52.9,48.5,44.9,41.1,73,51,29,30.02,29.87,9,1,13,0.00
2012-3-15,82.8,61.9,43.5,56.0,47.4,37.4,82,61,37,30.03,29.90,9,0,10,0.00
2012-3-16,72.3,59.9,50.4,58.9,51.7,45.1,84,75,62,30.00,29.91,9,1,12,0.10
2012-3-17,78.6,63.8,46.9,60.4,52.8,43.0,88,69,49,30.11,29.98,10,1,13,0.00
2012-3-18,69.3,60.3,52.0,57.8,52.8,47.0,86,77,65,30.16,29.98,9,2,13,0.00
2012-3-19,75.6,62.1,50.7,61.0,55.3,47.0,89,79,58,30.01,29.92,11,1,14,0.02
2012-3-20,73.6,63.2,55.4,62.5,57.5,52.2,90,82,67,30.08,29.98,8,1,9,0.00
2012-3-21,67.8,60.3,50.7,61.6,55.1,47.3,90,83,74,30.15,30.04,8,1,12,0.00
2012-3-22,78.6,67.5,55.9,65.4,59.6,52.6,90,77,60,30.08,29.89,7,1,10,0.00
2012-3-23,82.9,68.5,53.4,65.9,57.4,50.3,90,70,45,29.93,29.76,7,1,10,0.00
2012-3-24,64.9,59.8,51.4,58.0,55.3,48.1,89,85,68,29.76,29.68,8,2,12,0.32
2012-3-25,63.9,54.7,48.6,56.2,49.9,45.5,89,84,71,29.71,29.58,9,2,13,0.10
2012-3-26,58.8,52.8,39.0,52.1,33.9,13.4,82,51,32,30.06,29.64,17,5,26,0.00
2012-3-27,38.8,32.3,27.0,21.2,15.8,13.6,66,51,36,30.18,30.06,7,1,12,0.00
2012-3-31,75.5,72.8,70.2,62.2,61.0,59.5,69,67,64,30.12,30.00,12,11,22,0.78
2012-4-7,72.7,58.2,49.1,61.1,28.3,22.5,77,33,26,30.06,29.63,12,3,21,0.19
2012-4-8,72.7,55.0,34.3,41.9,31.9,21.4,65,43,27,29.93,29.67,13,2,22,0.00
2012-4-9,68.9,56.8,43.2,40.8,33.9,25.0,67,43,32,29.75,29.60,16,4,26,0.00
2012-4-10,64.6,48.6,32.7,43.0,31.2,24.1,85,55,32,29.73,29.55,13,2,18,0.00
2012-4-11,53.4,41.9,30.4,36.3,30.0,22.6,83,64,42,29.89,29.71,13,2,20,0.02
2012-4-12,59.9,48.4,37.6,37.9,32.7,27.9,83,57,37,30.00,29.88,10,2,17,0.02
2012-4-13,67.6,51.7,33.6,40.2,33.5,27.5,81,52,32,30.11,29.98,10,1,16,0.00
2012-4-14,78.6,58.5,35.4,51.3,40.0,29.5,83,54,30,30.07,29.85,12,1,17,0.02
2012-4-15,84.0,67.7,54.5,63.4,55.5,50.5,88,68,44,29.89,29.78,10,1,22,0.06
2012-4-16,89.2,73.4,52.3,67.3,57.7,48.1,87,61,40,29.86,29.70,17,3,20,0.00
2012-4-17,76.8,65.4,53.8,55.6,43.6,37.3,59,46,33,30.07,29.81,10,2,17,0.00
2012-4-18,57.7,54.3,50.7,49.5,43.7,32.1,87,69,40,30.09,29.94,6,0,8,0.16
2012-4-19,69.8,57.3,48.9,56.2,48.7,42.7,89,75,51,29.96,29.81,8,1,12,0.16
2012-4-20,75.0,59.1,40.1,59.2,48.7,36.2,88,70,53,29.83,29.61,15,2,21,0.00
2012-4-21,82.2,60.4,49.6,62.8,52.8,45.8,88,78,49,29.65,29.45,9,1,13,0.53
2012-4-22,52.2,48.6,41.5,47.5,44.2,37.5,88,85,80,29.65,29.31,9,2,16,0.58
2012-4-23,48.4,42.6,37.9,41.4,36.6,32.0,87,80,66,29.35,29.19,14,2,33,0.04
2012-4-24,64.0,50.0,33.4,39.4,33.0,29.4,85,55,33,29.55,29.31,12,2,18,0.04
2012-4-25,51.8,50.5,39.0,43.3,41.4,29.0,75,71,66,29.60,29.54,1,0,4,0.00
2012-4-26,73.0,60.1,44.8,59.7,47.7,31.3,76,64,55,29.81,29.39,10,2,21,0.00
2012-4-27,60.6,55.7,39.6,39.2,34.2,27.1,63,45,37,30.03,29.87,10,3,17,0.00
2012-4-28,57.9,46.6,34.9,39.1,32.1,25.6,82,58,38,30.12,29.95,8,0,12,0.04
2012-4-29,73.0,54.5,35.8,47.0,37.6,29.7,86,57,25,30.08,29.92,8,0,12,0.02
2012-4-30,63.3,54.9,40.5,52.8,40.3,26.6,73,58,39,30.14,29.86,12,2,19,0.00
2012-5-1,85.8,68.9,56.5,66.8,56.5,51.8,87,67,40,29.88,29.78,11,1,18,0.06
2012-5-2,82.8,68.2,59.2,68.7,61.3,53.0,88,79,61,29.91,29.79,11,1,14,0.59
2012-5-3,88.5,71.4,57.2,71.5,62.7,53.5,89,75,54,29.99,29.79,9,1,22,0.00
2012-5-4,88.0,73.8,59.4,73.3,62.5,55.8,89,70,46,29.83,29.68,12,1,16,0.00
2012-5-5,79.9,71.3,58.8,67.5,62.0,55.0,89,73,60,29.81,29.69,9,1,12,0.00
2012-5-6,74.8,67.4,62.6,63.5,60.4,57.0,87,79,67,29.89,29.80,9,1,12,0.00
2012-5-7,69.6,65.0,61.0,60.2,56.9,49.6,86,76,61,29.88,29.78,14,2,21,0.00
2012-5-8,70.7,65.5,60.4,66.0,57.8,46.6,89,77,57,29.82,29.58,10,2,17,0.24
2012-5-9,75.4,63.9,56.2,63.5,57.7,51.3,90,81,59,29.62,29.49,5,0,16,0.14
2012-5-10,64.8,57.0,44.4,53.3,44.2,37.0,88,64,47,29.81,29.47,10,2,20,0.00
2012-5-11,73.4,58.6,40.3,46.4,40.6,34.3,82,54,33,30.02,29.78,10,1,15,0.00
2012-5-12,81.1,62.8,41.5,56.7,47.5,37.1,86,61,35,30.14,30.00,11,1,15,0.00
2012-5-13,83.5,67.4,52.2,61.6,55.5,47.8,87,68,43,30.02,29.89,3,0,7,0.00
2012-5-14,66.7,62.9,58.8,62.4,58.9,54.6,89,87,78,29.92,29.81,9,1,14,1.03
2012-5-15,81.5,68.5,60.4,67.9,61.6,56.1,90,80,59,29.82,29.73,0,0,0,0.04
2012-5-16,86.2,71.9,53.8,68.1,58.1,50.3,89,65,41,29.79,29.66,0,0,0,0.00
2012-5-17,71.6,62.0,47.8,55.1,44.9,40.5,81,56,34,29.96,29.78,7,1,10,0.00
2012-5-18,77.7,61.9,42.6,55.6,48.0,38.7,87,63,40,30.03,29.92,4,0,7,0.00
2012-5-19,81.5,71.5,47.3,59.9,54.4,43.0,87,57,40,30.02,29.91,6,0,10,0.00
2012-5-20,83.8,69.3,51.8,61.3,55.5,47.7,88,64,38,30.02,29.92,8,1,13,0.00
2012-5-21,69.8,66.6,63.1,65.2,62.2,55.3,90,86,75,29.92,29.73,6,0,9,1.17
2012-5-22,81.9,70.4,64.0,71.2,64.0,59.9,91,81,62,29.73,29.62,2,0,9,0.57
2012-5-23,81.7,70.1,61.2,69.6,63.3,57.9,90,80,58,29.79,29.67,8,0,12,0.06
2012-5-24,83.8,73.7,65.1,70.8,65.3,61.5,90,76,56,29.90,29.79,14,0,24,0.08
2012-5-25,86.9,76.1,32.0,99.9,67.9,60.7,90,76,59,29.96,29.89,8,1,12,0.00
2012-5-26,92.8,78.7,64.8,76.0,69.9,61.4,90,76,53,29.98,29.88,8,0,11,0.00
2012-5-27,92.5,76.6,66.6,77.8,68.4,61.4,90,77,55,29.99,29.85,16,1,26,0.28
2012-5-28,92.8,79.8,63.1,75.9,69.5,59.2,89,72,56,29.88,29.69,10,1,23,0.22
2012-5-29,94.8,80.8,32.0,99.9,72.0,61.6,89,68,52,29.74,29.55,9,1,21,1.58
2012-5-30,86.4,73.3,61.0,71.0,62.3,56.1,89,70,48,29.67,29.53,5,0,7,0.08
2012-5-31,81.0,70.8,59.0,60.4,56.2,52.5,86,62,42,29.73,29.57,6,1,11,0.00
2012-6-1,76.3,66.8,58.3,69.7,61.6,53.5,89,84,73,29.72,29.44,9,1,14,1.27
2012-6-2,75.0,63.5,50.5,57.7,51.8,46.3,89,68,47,29.67,29.55,8,0,17,0.00
2012-6-3,79.9,66.5,50.5,60.4,53.1,45.2,84,64,44,29.68,29.52,6,1,12,0.02
2012-6-4,71.4,64.2,53.2,59.3,52.3,49.2,87,66,51,29.62,29.48,5,0,13,0.00
2012-6-5,69.6,60.9,52.0,54.2,51.6,47.1,84,72,54,29.79,29.61,7,1,9,0.00
2012-6-6,77.4,64.8,48.2,60.2,51.8,44.7,88,65,43,29.84,29.76,7,0,10,0.00
2012-6-7,82.2,65.3,49.8,61.9,53.9,45.8,88,68,45,29.86,29.77,5,0,12,0.00
2012-6-8,83.3,65.8,32.0,99.9,58.5,45.9,88,60,40,29.87,29.74,5,0,12,0.00
2012-6-10,91.8,83.6,32.0,99.9,64.2,41.7,78,51,41,29.92,0.00,12,2,12,0.00
2012-6-11,89.6,75.5,60.4,71.5,63.5,56.6,88,68,46,29.95,29.85,21,4,21,0.00
2012-6-12,82.4,73.6,67.1,73.7,67.5,62.2,88,81,71,29.87,29.62,16,2,16,0.96
2012-6-13,77.2,70.1,58.8,63.4,56.2,49.1,89,64,41,29.90,29.69,13,3,13,0.00
2012-6-14,82.2,70.0,56.5,65.3,58.0,50.2,83,67,51,30.02,29.90,8,1,8,0.00
2012-6-15,82.2,71.6,59.4,65.3,59.2,54.4,88,67,46,30.11,30.01,10,1,10,0.00
2012-6-16,81.7,69.5,54.3,62.3,57.4,50.5,89,68,49,30.14,29.99,12,2,12,0.00
2012-6-17,82.0,70.1,52.9,64.4,57.3,48.8,88,66,49,30.01,29.83,15,4,15,0.00
2012-6-18,69.4,65.9,62.4,62.3,59.6,56.3,87,80,71,29.91,29.83,12,2,12,0.04
2012-6-19,90.3,76.4,65.8,75.6,68.6,61.9,89,78,60,29.95,29.86,8,1,8,0.00
2012-6-20,94.8,82.5,67.5,77.1,70.9,63.8,89,70,49,29.97,29.82,8,1,8,0.00
2012-6-21,96.1,82.5,68.9,77.4,71.4,65.2,89,71,49,29.85,29.65,17,1,17,0.00
2012-6-22,93.0,78.4,68.9,76.9,70.3,63.8,89,77,51,29.70,29.59,21,1,21,0.24
2012-6-23,86.4,75.8,61.9,70.3,62.4,57.8,88,66,42,29.84,29.69,12,1,12,0.00
2012-6-24,90.3,76.6,58.8,70.5,63.7,55.0,88,67,45,29.85,29.70,9,1,9,0.00
2012-6-25,83.3,72.3,61.9,67.6,57.2,44.1,88,62,36,29.70,29.57,18,2,18,0.00
2012-6-26,79.3,67.7,54.3,54.3,49.1,42.8,72,52,39,29.74,29.62,15,2,15,0.00
2012-6-27,86.2,73.0,53.2,62.0,55.4,46.4,81,56,38,29.77,29.67,15,1,15,0.00
2012-6-28,96.4,79.0,57.9,68.4,62.1,53.4,87,60,35,29.74,29.55,13,2,13,0.00
2012-6-29,103.3,86.8,32.0,99.9,71.4,63.6,86,62,38,29.69,29.49,32,2,32,0.77
2012-6-30,92.1,79.5,67.1,74.8,69.1,63.4,89,72,49,29.70,29.55,13,1,13,0.72
2012-7-1,96.6,83.7,68.7,77.7,70.3,65.0,89,66,45,29.74,29.62,12,1,12,0.06
2012-7-2,91.8,80.3,66.9,73.0,66.9,62.9,88,66,42,29.81,29.72,8,0,8,0.04
2012-7-3,95.9,79.8,66.0,74.7,67.6,62.0,88,69,40,29.80,29.70,13,1,13,0.02
2012-7-4,98.4,82.3,67.6,78.7,70.2,63.2,88,69,50,29.76,29.62,20,1,20,0.04
2012-7-5,96.6,84.5,67.6,75.1,69.6,63.1,87,63,44,29.71,29.63,15,1,15,0.00
2012-7-6,97.7,86.3,72.0,76.2,72.0,66.2,84,64,46,29.77,29.69,8,0,8,0.00
2012-7-7,102.4,88.3,72.3,81.1,74.3,68.6,88,66,45,29.75,29.63,13,1,13,0.00
2012-7-8,97.5,82.3,75.0,79.0,74.2,70.6,88,77,53,29.70,29.64,13,0,13,0.75
2012-7-9,89.2,79.1,71.2,72.1,68.3,64.6,89,71,51,29.79,29.68,13,2,13,0.67
2012-7-10,90.5,78.9,66.7,71.2,66.3,63.1,88,68,46,29.87,29.78,8,0,8,0.00
2012-7-11,90.7,77.5,66.0,73.0,67.0,62.0,88,72,48,29.97,29.86,14,1,14,0.00
2012-7-12,90.3,77.5,63.1,72.0,65.2,59.5,89,68,45,30.01,29.96,13,1,13,0.00
2012-7-13,86.2,74.7,67.8,70.4,65.3,63.0,88,73,54,30.04,29.98,4,0,4,0.00
2012-7-14,83.1,74.4,66.9,72.3,67.8,63.2,88,80,68,30.03,29.92,7,1,7,0.16
2012-7-15,95.2,80.1,71.6,78.0,71.8,67.9,89,77,52,29.95,29.80,14,1,14,0.16
2012-7-16,95.5,81.6,68.5,79.2,71.0,64.8,88,72,51,29.84,29.67,13,2,13,0.04
2012-7-17,100.0,85.0,66.4,77.6,70.4,62.4,88,64,41,29.75,29.61,10,1,10,0.00
2012-7-18,102.4,81.3,70.7,80.2,72.0,66.3,88,76,47,29.75,29.64,20,1,20,0.53
2012-7-19,92.5,80.2,70.3,76.7,71.3,66.9,89,76,57,29.79,29.65,13,1,13,1.03
2012-7-20,82.2,73.1,66.0,74.9,68.6,62.4,89,86,76,29.82,29.68,10,2,10,0.14
2012-7-21,73.2,67.3,63.7,67.7,63.1,60.4,89,86,80,29.95,29.81,7,2,7,0.26
2012-7-22,84.0,74.3,67.3,72.0,67.5,63.3,89,80,65,29.99,29.91,9,1,9,0.00
2012-7-23,93.0,79.7,66.6,77.2,70.2,62.7,89,74,55,29.94,29.72,10,1,10,0.00
2012-7-24,88.3,79.6,70.3,77.8,71.2,63.7,87,76,64,29.72,29.52,20,2,20,0.00
2012-7-25,86.2,76.7,62.2,64.9,61.7,57.0,85,62,43,29.80,29.65,8,0,8,0.00
2012-7-26,99.0,78.7,64.2,81.9,68.6,59.8,88,74,46,29.67,29.45,16,2,16,0.55
2012-7-27,91.0,80.2,72.0,77.6,71.7,67.9,88,76,60,29.70,29.54,12,1,12,0.02
2012-7-28,91.2,79.4,67.8,75.6,68.5,62.4,88,71,50,29.78,29.68,12,1,12,0.00
2012-7-29,86.5,76.7,66.0,70.0,65.0,60.7,86,68,51,29.85,29.76,9,1,9,0.00
2012-7-30,90.7,77.2,62.4,75.0,66.2,58.5,87,70,52,29.90,29.79,10,1,10,0.00
2012-7-31,89.4,77.2,69.4,74.4,68.4,64.9,88,75,55,29.84,29.68,15,2,15,1.78
2012-8-1,88.3,74.4,64.9,74.4,66.9,61.3,89,78,59,29.74,29.63,17,1,17,0.00
2012-8-2,92.3,79.5,64.9,76.7,69.4,61.3,89,73,52,29.74,29.67,4,0,4,0.00
2012-8-3,94.5,81.1,68.4,77.7,71.8,64.7,89,75,56,29.88,29.72,12,1,12,0.00
2012-8-4,94.3,83.1,69.6,78.5,71.9,65.9,89,70,52,29.95,29.86,21,3,21,0.00
2012-8-5,95.5,80.3,70.9,78.1,72.1,66.5,88,77,55,29.94,29.82,17,2,17,0.30
2012-8-6,92.5,80.0,68.4,77.3,69.8,63.7,89,73,45,29.90,29.80,9,0,9,0.00
2012-8-7,89.8,76.6,64.0,72.0,66.6,60.4,89,73,51,29.84,29.75,8,0,8,0.00
2012-8-8,93.0,79.8,67.3,76.2,67.8,63.6,89,70,40,29.82,29.72,11,1,11,0.00
2012-8-9,94.3,76.6,66.9,75.9,68.0,63.1,89,76,48,29.78,29.63,16,2,16,0.02
2012-8-10,87.3,74.0,68.4,74.6,67.9,64.3,89,82,61,29.67,29.50,14,2,14,0.65
2012-8-11,89.4,77.2,66.7,74.3,64.8,58.3,89,68,47,29.76,29.58,12,1,12,0.00
2012-8-12,85.6,73.9,61.2,68.2,61.9,56.9,87,68,50,29.83,29.75,8,0,8,0.00
2012-8-13,87.6,73.0,59.5,68.8,62.3,55.8,88,71,47,29.88,29.75,11,0,11,0.00
2012-8-14,87.4,75.0,67.8,74.4,68.2,63.0,89,80,57,29.76,29.63,7,0,7,0.45
2012-8-15,82.8,73.0,63.7,71.4,65.1,44.0,89,77,57,29.75,29.66,8,0,8,0.02
2012-8-16,88.7,75.0,60.4,70.7,63.3,56.9,89,69,46,29.82,29.69,10,1,10,0.00
2012-8-17,92.7,73.3,61.3,73.5,65.1,57.8,89,77,46,29.73,29.60,14,1,14,0.65
2012-8-18,82.6,72.3,60.6,66.8,61.5,55.8,89,71,45,29.77,29.69,10,0,10,0.00
2012-8-19,72.9,65.1,59.2,66.5,60.1,55.0,88,84,75,29.80,29.70,7,0,7,0.47
2012-8-20,83.3,68.4,61.0,69.8,62.4,57.7,89,82,60,29.80,29.66,14,1,14,0.28
2012-8-21,81.3,69.3,59.7,68.0,60.7,56.5,90,76,50,29.94,29.80,9,1,9,0.02
2012-8-22,84.9,71.7,58.8,68.8,61.9,55.0,88,73,52,29.98,29.89,7,0,7,0.00
2012-8-23,86.9,72.8,58.8,70.6,62.7,55.3,89,73,45,30.00,29.91,7,0,7,0.00
2012-8-24,89.1,73.6,62.4,72.8,65.0,58.8,89,76,47,30.00,29.93,4,0,4,0.00
2012-8-25,82.6,72.8,67.3,70.8,64.9,61.6,89,77,53,30.03,29.96,12,0,12,0.02
2012-8-26,77.4,71.8,68.9,72.0,67.2,64.2,88,86,82,30.04,29.96,10,1,10,0.96
2012-8-27,89.8,78.4,69.1,74.5,69.2,65.4,89,75,53,29.97,29.75,10,1,10,0.00
2012-8-28,86.0,77.7,65.5,72.3,66.2,59.8,87,69,47,29.79,29.72,8,1,8,0.04
2012-8-29,84.0,71.9,58.8,66.5,61.1,54.6,88,71,47,29.86,29.76,4,0,4,0.00
2012-8-30,85.6,72.2,58.6,67.3,61.6,45.0,88,71,49,29.95,29.85,5,0,5,0.00
2012-8-31,94.5,77.4,58.3,73.7,64.4,54.7,89,68,38,29.95,29.80,12,0,12,0.00
2012-9-1,93.6,76.8,67.3,76.9,68.8,62.9,88,77,57,29.90,29.80,27,3,27,0.02
2012-9-2,82.2,74.8,68.0,73.2,69.4,64.3,89,84,73,29.87,29.78,5,0,5,0.79
2012-9-3,87.6,77.4,70.7,76.3,70.9,67.3,90,81,63,29.86,29.78,18,2,18,5.56
2012-9-4,88.0,78.8,71.8,76.2,72.2,68.0,89,81,66,29.83,29.64,14,2,14,0.06
2012-9-5,92.5,80.3,72.5,76.3,71.7,68.6,89,76,55,29.67,29.60,7,0,7,0.00
2012-9-6,88.3,78.1,71.4,76.1,70.5,66.3,85,78,64,29.73,29.65,8,0,8,0.00
2012-9-7,94.3,78.3,65.5,76.3,69.2,61.8,89,75,50,29.78,29.62,13,1,13,0.00
2012-9-8,87.1,71.3,61.0,74.0,64.6,56.1,89,80,62,29.68,29.44,21,1,21,1.17
2012-9-9,79.3,65.4,52.0,63.7,54.4,48.7,89,70,41,29.80,29.66,20,1,20,0.00
2012-9-10,73.2,62.5,51.6,56.0,50.4,46.7,86,66,44,29.99,29.80,13,2,13,0.00
2012-9-11,76.3,61.3,45.1,58.2,49.3,41.2,88,68,40,30.14,29.99,8,1,8,0.00
2012-9-12,81.7,63.8,46.4,62.6,53.3,42.6,88,71,48,30.18,30.09,9,1,9,0.00
2012-9-13,82.6,66.2,50.9,65.4,55.7,47.2,88,71,48,30.19,30.06,10,1,10,0.00
2012-9-14,84.4,66.5,49.8,64.6,56.4,46.1,89,72,47,30.09,29.91,8,1,8,0.00
2012-9-15,75.0,66.2,54.5,61.4,52.9,48.8,81,64,43,30.08,29.94,12,2,12,0.00
2012-9-16,75.6,61.2,47.8,57.6,51.0,44.2,88,71,49,30.01,29.88,8,1,8,0.00
2012-9-17,78.6,62.3,44.8,63.3,54.8,41.1,88,78,58,29.93,29.75,16,2,16,0.00
2012-9-18,73.0,68.6,61.5,69.3,64.4,55.3,89,87,78,29.75,29.40,20,4,20,1.90
2012-9-19,68.4,59.9,46.8,55.5,48.5,42.2,86,68,43,29.98,29.69,12,2,12,0.00
2012-9-20,75.4,58.1,42.1,58.1,49.3,38.5,89,74,52,30.00,29.85,15,2,15,0.00
2012-9-21,81.3,66.0,49.3,66.0,57.0,45.6,89,74,55,29.87,29.73,12,2,12,0.00
2012-9-22,86.7,71.3,60.1,68.7,58.8,47.2,89,67,44,29.79,29.59,24,3,24,0.00
2012-9-23,69.6,58.2,46.6,50.9,44.6,40.1,82,62,44,29.98,29.79,16,2,16,0.00
2012-9-24,68.4,56.0,43.9,51.4,43.8,38.7,86,66,39,30.05,29.92,12,2,12,0.00
2012-9-25,77.4,59.0,38.8,55.7,46.7,35.0,88,67,39,30.01,29.84,14,2,14,0.00
2012-9-26,81.1,68.5,59.4,65.6,59.2,52.9,85,73,55,29.93,29.85,17,3,17,0.00
2012-9-27,78.3,68.9,62.1,68.6,62.4,58.1,89,80,64,29.98,29.87,12,0,12,0.37
2012-9-28,77.2,66.7,57.9,68.9,58.4,50.2,89,76,56,29.90,29.80,10,0,10,0.22
2012-9-29,68.2,58.5,49.8,53.0,49.4,45.5,87,73,51,29.86,29.73,8,1,8,0.00
2012-9-30,70.3,56.2,47.1,56.6,49.6,43.4,88,79,56,29.74,29.63,13,0,13,0.20
2012-10-1,70.7,57.0,45.7,58.6,50.5,42.6,90,80,57,29.79,29.72,16,1,16,0.02
2012-10-2,66.0,61.7,58.8,62.0,58.1,55.0,89,88,87,29.77,29.70,7,1,7,0.65
2012-10-3,79.7,68.6,63.1,71.5,64.3,59.8,91,87,75,29.93,29.76,1,0,1,0.00
2012-10-4,79.7,69.5,57.6,69.8,62.1,52.3,90,79,52,29.98,29.90,13,1,13,0.02
2012-10-5,82.8,65.7,50.4,65.1,56.2,46.9,89,73,49,29.96,29.73,10,0,10,0.00
2012-10-6,71.4,58.5,44.8,63.0,50.4,39.4,88,75,55,29.89,29.64,19,2,19,0.00
2012-10-7,55.0,49.2,41.4,48.4,43.7,37.3,86,81,69,29.99,29.84,14,1,14,0.04
2012-10-8,50.4,43.1,36.7,44.9,39.1,33.3,89,86,78,30.12,29.98,8,0,8,0.12
2012-10-9,62.4,50.9,43.0,49.9,44.6,39.7,89,80,61,30.05,29.86,7,0,7,0.02
2012-10-10,70.3,53.2,41.7,55.9,44.7,37.8,89,75,52,29.90,29.67,22,1,22,0.00
2012-10-11,62.2,50.2,39.2,41.1,36.3,31.4,82,60,44,30.11,29.90,13,2,13,0.00
2012-10-12,60.6,45.2,34.3,47.1,35.3,28.5,89,70,44,30.24,29.95,17,2,17,0.00
2012-10-13,59.2,44.2,28.8,41.0,34.3,25.1,88,70,49,30.32,30.03,21,2,21,0.00
2012-10-14,73.9,57.4,39.9,56.9,48.6,34.7,86,74,55,30.03,29.67,16,3,16,0.00
2012-10-15,69.3,63.5,55.6,63.9,54.6,45.4,86,73,55,29.67,29.49,27,6,27,0.12
2012-10-16,63.0,54.2,39.7,46.1,42.2,35.0,83,65,47,29.75,29.64,15,2,15,0.00
2012-10-17,68.4,50.6,34.7,50.7,41.6,31.2,88,73,50,29.82,29.69,14,2,14,0.00
2012-10-18,67.8,55.6,39.2,56.6,48.8,35.7,89,79,65,29.74,29.59,21,4,21,0.69
2012-10-19,69.6,59.3,48.7,60.7,54.6,45.0,89,85,72,29.64,29.42,12,1,12,0.10
2012-10-20,65.3,53.6,43.9,55.4,43.2,38.7,89,70,47,29.75,29.48,16,2,16,0.00
2012-10-21,65.5,50.5,38.5,49.8,39.8,34.4,88,69,46,29.95,29.74,14,2,14,0.00
2012-10-22,70.3,51.4,34.3,52.7,42.1,30.6,88,72,48,30.03,29.90,8,0,8,0.00
2012-10-23,76.8,57.7,45.7,60.8,50.9,41.7,88,79,57,29.97,29.83,9,1,9,0.02
2012-10-24,80.1,63.8,52.7,63.6,54.9,49.2,90,75,47,29.94,29.86,12,1,12,0.00
2012-10-25,70.3,60.6,52.0,61.3,55.3,48.2,89,83,73,30.02,29.91,9,1,9,0.00
2012-10-26,67.8,63.7,60.6,60.0,57.9,56.3,87,82,74,29.99,29.86,10,1,10,0.00
2012-10-27,70.5,62.5,59.4,57.1,55.4,53.7,86,78,60,29.86,29.69,10,2,10,0.00
2012-10-28,59.5,56.7,50.5,54.4,51.2,47.1,88,82,75,29.70,29.48,16,5,16,0.26
2012-10-29,50.5,48.5,44.6,47.4,45.1,40.4,89,88,85,29.48,28.53,43,9,43,2.46
2012-10-30,43.9,41.8,40.3,39.9,38.1,36.7,88,87,85,29.27,28.66,24,6,24,0.30
2012-10-31,51.3,44.5,39.9,40.9,38.0,35.9,89,78,66,29.46,29.25,17,5,17,0.02
2012-11-1,52.2,47.4,44.2,40.6,37.2,35.1,72,68,62,29.55,29.44,18,5,18,0.00
2012-11-2,50.0,44.0,33.6,38.5,34.0,29.0,86,68,54,29.75,29.53,20,5,20,0.00
2012-11-3,47.7,44.4,42.1,34.5,32.5,30.3,69,63,58,29.89,29.74,18,5,18,0.00
2012-11-4,50.2,42.4,36.0,34.0,30.8,28.2,82,64,51,29.90,29.83,17,3,17,0.00
2012-11-5,48.0,41.0,28.8,31.2,27.6,21.8,75,59,49,29.99,29.85,12,3,12,0.00
2012-11-6,46.8,34.6,23.7,33.3,25.6,19.3,86,71,52,30.02,29.83,9,1,9,0.00
2012-11-7,42.4,38.7,34.2,29.1,26.9,23.4,77,63,51,29.84,29.73,12,3,12,0.00
2012-11-8,52.5,43.8,35.8,30.8,23.6,18.9,61,46,29,29.90,29.75,22,6,22,0.00
2012-11-9,58.1,44.7,34.3,38.2,32.6,26.6,81,64,47,30.05,29.89,12,2,12,0.00
2012-11-10,64.8,46.2,30.4,44.9,35.7,26.4,88,69,45,30.15,30.02,10,1,10,0.00
2012-11-11,67.3,50.1,34.2,48.7,39.8,29.9,87,69,49,30.25,30.13,7,1,7,0.00
2012-11-12,67.6,55.5,41.2,57.6,48.6,36.1,88,78,69,30.16,29.90,22,6,22,0.12
2012-11-13,48.7,41.7,31.3,43.5,31.4,23.8,85,68,51,30.31,30.03,17,4,17,0.28
2012-11-14,45.1,36.3,28.9,31.0,27.1,23.4,83,70,52,30.37,30.24,13,1,13,0.00
2012-11-15,45.5,35.8,27.9,34.7,29.5,23.9,86,78,63,30.24,30.11,6,0,6,0.00
2012-11-16,53.4,41.2,30.9,37.0,30.5,25.4,88,68,46,30.26,30.11,14,1,14,0.00
2012-11-17,55.2,39.5,27.0,37.3,28.9,22.2,85,68,43,30.42,30.26,12,1,12,0.00
2012-11-18,54.5,41.0,28.6,39.7,32.4,24.4,87,73,48,30.42,30.30,9,1,9,0.00
2012-11-19,50.2,42.6,31.6,38.9,35.0,27.6,85,75,64,30.31,30.04,12,1,12,0.00
2012-11-20,52.2,39.4,28.8,42.7,33.4,25.4,88,80,65,30.04,29.90,6,0,6,0.00
2012-11-21,54.9,39.3,26.6,42.4,30.9,23.3,88,74,46,30.05,29.94,8,1,8,0.00
2012-11-22,56.8,38.7,25.5,41.1,30.1,21.9,87,73,48,30.10,29.93,5,0,5,0.00
2012-11-23,66.0,44.5,26.8,46.2,33.5,23.2,88,68,44,29.94,29.57,24,5,24,0.00
2012-11-24,41.9,37.3,32.7,26.9,22.4,19.1,58,55,48,29.85,29.71,28,8,28,0.00
2012-11-25,45.7,35.1,24.6,28.2,21.9,18.1,78,59,47,29.87,29.71,16,4,16,0.00
2012-11-26,53.4,36.5,22.1,34.5,26.3,17.7,85,68,46,30.01,29.79,10,1,10,0.00
2012-11-27,42.4,38.6,35.1,37.6,33.1,29.7,87,81,67,30.08,29.97,9,2,9,0.26
2012-11-28,46.9,37.6,31.1,35.8,27.1,21.9,83,67,45,30.17,30.04,17,2,17,0.00
2012-11-29,50.5,35.0,24.6,35.4,24.6,19.9,84,67,45,30.24,30.10,12,2,12,0.00
2012-11-30,53.4,36.7,24.4,35.8,26.8,19.8,86,69,44,30.16,30.08,8,1,8,0.00
2012-12-1,49.5,38.2,30.0,39.8,32.1,25.2,86,79,66,30.25,30.13,7,1,7,0.00
2012-12-2,58.8,43.8,31.3,47.1,38.2,27.6,89,81,64,30.19,29.91,9,1,9,0.00
2012-12-3,67.8,53.7,40.8,57.3,47.6,37.1,89,80,67,30.06,29.93,7,0,7,0.00
2012-12-4,73.8,59.1,44.8,58.9,50.2,41.4,90,74,53,30.03,29.78,18,2,18,0.00
2012-12-5,63.7,50.0,33.6,51.3,35.6,22.3,69,58,44,30.14,29.77,18,5,18,0.00
2012-12-6,45.1,34.1,23.7,28.5,23.8,18.5,82,67,51,30.19,29.99,8,1,8,0.00
2012-12-7,43.2,38.8,32.5,39.1,34.2,26.4,88,84,72,29.99,29.77,8,1,8,0.12
2012-12-8,53.1,44.6,37.8,46.4,40.6,34.5,89,86,78,29.84,29.67,6,0,6,0.04
2012-12-9,48.7,46.0,43.5,45.5,43.0,40.2,90,89,88,30.00,29.76,7,1,7,0.34
2012-12-10,52.9,48.3,45.0,50.3,45.6,40.1,91,90,78,29.76,29.37,16,1,16,0.06
2012-12-11,50.4,42.4,33.4,40.1,33.9,26.5,81,72,59,30.03,29.53,18,2,18,0.00
2012-12-12,41.5,35.2,28.2,31.4,27.8,23.8,84,75,61,30.25,30.02,8,1,8,0.00
2012-12-13,46.0,32.1,22.8,34.4,24.6,19.4,88,75,50,30.29,30.13,5,0,5,0.00
2012-12-14,53.6,33.7,20.3,36.3,25.5,16.5,87,73,48,30.14,30.00,7,0,7,0.00
2012-12-15,53.1,39.7,27.0,37.4,29.9,23.3,87,70,50,30.10,29.89,12,1,12,0.00
2012-12-16,48.9,45.2,42.1,41.8,38.5,33.6,87,77,63,29.90,29.64,8,1,8,0.00
2012-12-17,51.4,45.9,37.8,47.2,42.1,34.5,89,87,80,29.67,29.34,9,1,7,0.08
2012-12-18,57.4,45.8,33.4,51.1,38.5,27.0,90,76,60,29.63,29.33,21,4,21,0.00
2012-12-19,54.0,41.1,30.4,41.2,33.4,26.0,88,75,60,29.99,29.60,21,2,21,0.00
2012-12-20,45.5,38.9,32.4,40.2,33.9,27.8,88,82,66,30.01,29.20,17,2,17,0.42
2012-12-21,45.0,39.5,36.7,41.9,30.4,24.4,89,70,60,29.36,29.14,39,9,39,0.35
2012-12-22,41.4,36.8,31.3,25.5,23.3,20.8,65,58,50,29.84,29.35,39,11,39,0.00
2012-12-23,49.5,34.9,22.8,28.4,22.8,17.5,81,63,41,29.85,29.67,17,2,17,0.00
2012-12-24,38.5,31.9,25.9,30.2,26.6,21.1,88,81,66,29.88,29.70,13,1,13,0.00
2012-12-25,45.0,35.9,31.8,39.2,31.8,28.1,89,85,74,30.05,29.71,7,0,7,0.30
2012-12-26,34.9,32.1,29.1,32.0,28.2,25.1,89,85,76,30.05,29.31,10,1,10,0.02
2012-12-27,38.5,35.8,33.8,31.4,28.7,12.9,89,76,66,29.83,29.30,17,2,17,0.12
2012-12-28,40.5,34.9,28.4,28.2,25.7,23.4,83,69,57,29.96,29.81,15,2,15,0.04
2012-12-29,41.5,35.1,30.0,36.1,29.7,25.5,88,80,68,29.82,29.39,21,3,21,0.20
2012-12-30,38.1,34.4,25.5,27.5,22.9,17.6,72,63,55,30.13,29.64,23,7,23,0.00
2012-12-31,41.5,32.2,21.4,30.7,23.5,16.5,83,71,60,30.11,29.77,20,3,20,0.00
2013-1-1,45.7,39.8,35.2,32.7,29.9,25.0,75,68,59,29.83,29.72,14,2,14,0.00